Overview Statistics Trail Chart Weather Telemetry Raw packets
 

This is the latest recevied weather packets stored in our database for station/object OE6ATD-13. If no packets are shown the sender has not sent any weather packets the latest 10 day(s).

<< 25 26 27 28 29 30 31 >>
Time Temp. Humidity Pressure Rain* Wind** Luminosity Snow
1788321030 15° C 99% 1021.6 hPa 0 mm - 0 W/m² -
1788320425 15.56° C 99% 1021.6 hPa 0 mm - 0 W/m² -
1788319821 15.56° C 99% 1021.6 hPa 0 mm - 0 W/m² -
1788319227 15.56° C 99% 1021.7 hPa 0 mm - 0 W/m² -
1788318628 15.56° C 99% 1021.7 hPa 0 mm - 0 W/m² -
1788318026 15.56° C 99% 1021.7 hPa 0.25 mm - 0 W/m² -
1788317419 15.56° C 99% 1021.7 hPa 0.51 mm - 0 W/m² -
1788316815 16.11° C 99% 1021.8 hPa 1.02 mm - 0 W/m² -
1788316226 16.11° C 98% 1021.6 hPa 2.03 mm - 0 W/m² -
1788315622 16.11° C 98% 1021.5 hPa 2.29 mm - 0 W/m² -
1788315018 16.11° C 97% 1021.4 hPa 4.06 mm - 0 W/m² -
1788314429 16.11° C 96% 1021.7 hPa 5.08 mm - 0 W/m² -
1788313825 16.11° C 95% 1021.7 hPa 4.57 mm - 0 W/m² -
1788313220 16.11° C 94% 1021.9 hPa 4.06 mm - 0 W/m² -
1788312616 16.67° C 93% 1022.1 hPa 3.05 mm - 0 W/m² -
1788312027 16.67° C 92% 1022.2 hPa 2.79 mm - 0 W/m² -
1788311423 16.67° C 91% 1022.3 hPa 1.02 mm - 0 W/m² -
1788310823 16.67° C 91% 1022.2 hPa 0 mm - 0 W/m² -
1788310218 16.67° C 92% 1021.9 hPa 0 mm - 0 W/m² -
1788309629 16.11° C 94% 1021.2 hPa 0 mm - 0 W/m² -
1788309039 16.11° C 94% 1021.1 hPa 0 mm - 0 W/m² -
1788308421 16.11° C 94% 1021 hPa 0 mm - 0 W/m² -
1788307817 16.11° C 94% 1020.9 hPa 0 mm - 0 W/m² -
1788307229 16.11° C 94% 1021 hPa 0 mm - 0 W/m² -
1788306624 15.56° C 95% 1021 hPa 0 mm - 0 W/m² -

* Rain latest hour (hover to see other rain measurements)
** Current wind speed in m/s (hover to see current wind gust speed)